Vorticity
6 9 8 9 7 5 5 6 6 7 6 5 5 4 5 5 5 6 6 6 6 6 5 5 5 5 5 5 5 5 5 5 5 5 5 5 6 7 7 7 7 6 6 5 5 4 4 3 4 5 6 8 8 8 8 8 8 9 9 9 9 8 8 9 7 6 7 7 8 9 7 7 7 6 6 5 5 7 7 6 7 8 8 7 7
7 7 6 7 8 7 9 7 6 6 6 6 5 5 6 5 5 6 6 7 7 6 7 6 6 6 6 6 6 5 5 5 5 5 5 4 4 5 5 5 5 5 4 5 5 4 5 5 6 7 7 8 8 8 8 7 8 9 10 9 9 8 7 8 7 6 8 8 7 7 7 7 6 5 6 5 5 6 6 5 6 6 7 7 8
7 6 4 3 5 5 6 7 8 8 6 6 6 5 5 5 6 6 6 8 8 8 8 7 8 8 7 8 7 6 6 5 5 5 5 5 5 5 5 4 4 5 4 4 6 6 8 8 8 8 9 8 8 8 7 7 8 9 9 9 9 10 11 10 9 8 8 7 6 6 6 6 6 6 5 4 5 5 3 3 4 4 8 10 8
4 6 10 8 8 7 4 4 7 8 6 5 6 7 6 5 5 5 5 6 7 7 9 9 9 9 9 10 9 9 9 7 7 7 6 6 6 6 6 6 6 6 6 6 7 7 7 7 8 8 7 6 6 6 6 6 8 9 8 9 8 8 10 9 6 6 6 6 5 5 4 5 6 6 5 5 5 4 3 4 4 4 6 7 4
-13 -5 9 9 12 13 9 6 7 6 6 8 7 5 5 4 3 5 5 5 5 6 7 8 8 8 8 9 9 10 10 9 8 7 6 6 7 7 7 8 8 8 8 8 7 7 7 6 6 5 6 7 5 4 5 6 7 6 6 6 5 4 6 6 6 5 5 5 5 4 5 5 4 4 4 5 4 3 3 5 4 3 4 2 2
-14 -5 3 8 17 19 13 9 8 9 8 9 9 6 9 9 5 4 4 4 6 6 6 7 7 7 7 7 9 10 9 10 10 8 8 7 6 7 7 7 8 8 8 8 7 7 7 7 6 5 5 7 6 6 7 7 6 5 4 5 5 5 6 6 6 6 6 6 4 3 4 4 3 4 4 4 4 3 3 5 5 7 8 5 6
3 4 2 8 14 14 7 -6 -5 8 9 4 8 12 11 10 6 6 6 4 5 6 6 7 7 8 8 7 7 9 9 9 10 9 9 8 6 7 7 6 7 7 6 7 7 7 7 7 7 7 6 7 7 7 7 6 6 5 5 5 5 6 6 4 5 5 5 5 4 3 4 4 4 3 4 5 5 4 2 3 5 7 13 15 13
3 4 4 7 6 6 4 -10 -9 11 12 3 9 10 1 -2 3 7 9 7 7 8 6 5 7 7 7 7 6 8 8 8 11 11 10 9 8 7 6 6 6 6 6 6 6 6 6 7 8 7 7 6 6 6 5 6 7 5 5 6 6 6 5 3 4 5 5 5 5 5 5 5 4 2 3 5 4 3 4 5 5 5 9 15 12
2 3 4 6 4 5 7 1 1 11 9 5 12 9 -1 4 13 12 10 9 6 6 8 6 5 6 7 7 6 5 5 5 7 9 8 9 11 10 9 9 7 7 6 6 6 6 5 6 8 8 7 6 5 6 5 5 5 5 4 5 6 6 4 4 5 6 7 6 5 5 6 5 3 3 5 6 4 3 4 5 7 8 7 6 1
4 1 3 5 5 5 7 7 6 7 7 9 11 4 1 13 18 5 0 7 6 5 8 7 5 6 7 8 8 7 8 6 6 7 7 8 9 7 6 7 7 8 8 7 6 6 6 5 5 6 6 5 5 6 7 5 4 4 5 5 6 5 4 5 6 6 6 6 5 5 6 5 5 6 8 8 6 6 6 5 6 9 8 3 -3
15 9 7 4 3 6 9 8 6 5 7 8 6 1 3 12 10 -2 -5 6 11 7 6 8 9 9 8 8 7 8 10 7 3 4 5 5 6 5 4 4 7 7 7 6 5 5 6 5 5 5 5 4 4 5 6 6 5 5 5 5 4 5 6 7 6 6 6 6 5 5 6 7 7 7 7 8 9 9 9 6 6 7 8 8 6
28 25 20 10 3 6 9 7 7 6 5 7 6 3 6 10 5 1 2 5 8 6 3 7 11 10 9 9 5 4 8 8 6 5 4 2 5 7 5 4 7 8 7 6 6 6 5 4 4 5 5 5 4 4 5 5 5 5 5 5 3 4 7 7 6 6 6 4 4 5 5 5 5 4 4 5 7 9 9 6 4 3 6 8 7
17 25 32 25 10 4 5 4 5 6 4 5 7 5 5 6 1 3 7 4 2 5 6 9 11 8 9 10 4 -1 -1 2 5 5 5 4 4 6 6 5 6 6 5 5 5 5 4 5 5 4 4 6 4 3 4 4 4 5 4 4 4 2 5 9 6 4 5 6 7 6 5 6 6 7 8 6 4 4 4 2 2 2 4 5 4
1 9 27 35 20 4 6 8 5 9 8 3 5 6 5 4 2 2 7 5 2 5 7 6 6 7 9 10 8 4 1 1 3 4 4 5 5 4 4 5 5 4 4 5 5 6 6 5 5 4 5 7 6 4 4 4 5 5 4 5 6 3 5 8 5 1 4 8 8 5 5 7 6 5 6 8 10 8 4 2 4 4 3 4 6
1 -1 15 40 38 8 -2 4 2 4 11 7 3 4 3 6 7 4 5 5 2 5 7 3 2 4 5 7 7 6 5 5 6 5 5 5 8 9 5 5 7 7 5 3 0 3 7 5 5 6 7 8 8 5 4 5 5 4 4 4 4 4 7 7 4 4 5 5 2 1 3 5 7 9 7 6 11 11 6 4 4 2 2 7 9
14 7 7 40 63 33 -1 1 3 0 7 10 9 8 5 6 9 8 7 6 4 5 8 4 2 2 2 4 8 7 5 8 7 6 6 5 8 11 9 5 0 -1 4 9 6 3 3 2 5 7 6 6 11 11 6 5 6 4 4 4 1 3 9 9 6 7 8 6 5 6 8 4 4 10 9 7 10 10 8 7 6 3 5 7 5
23 20 8 24 59 51 12 -1 5 6 8 10 12 15 11 6 7 6 4 6 6 6 7 5 5 7 5 3 5 5 3 4 6 5 5 6 7 7 7 3 -3 -4 4 12 11 6 4 3 5 7 5 1 4 11 10 8 8 5 4 5 1 2 8 10 7 7 8 7 6 7 10 8 6 9 8 5 9 10 8 9 9 5 4 3 1
18 22 21 19 36 50 35 18 19 24 27 27 25 25 18 6 -2 -5 0 13 15 5 4 7 7 11 13 8 5 9 9 6 5 5 3 2 3 4 5 4 2 5 9 10 7 5 5 6 3 5 10 6 -1 1 7 9 9 7 6 6 3 1 5 6 6 8 7 6 3 3 7 7 5 9 9 6 9 10 6 9 10 5 5 7 4
10 9 14 7 7 23 31 27 27 26 25 28 32 37 39 29 15 4 3 14 17 7 7 13 9 4 8 10 6 5 7 5 2 3 3 2 2 1 -1 1 3 3 4 5 3 1 4 9 5 1 8 12 4 -2 3 9 11 6 4 6 6 3 4 5 6 9 10 8 5 5 10 10 4 4 8 9 10 7 2 6 9 2 2 6 2
17 11 12 7 4 8 7 7 9 2 -5 2 11 20 32 41 46 41 27 15 10 3 2 9 8 -2 4 27 38 28 19 17 11 4 2 1 5 6 3 3 7 5 3 6 6 1 2 8 8 2 3 9 9 4 3 10 17 13 5 4 7 6 5 5 4 4 8 11 6 1 5 9 7 6 8 7 9 9 3 1 3 2 5 8 3
12 15 18 18 19 19 13 9 7 -6 -15 -5 4 6 10 18 32 45 47 39 30 19 8 4 7 0 -8 9 37 41 35 37 33 22 17 10 4 4 5 4 6 3 1 6 9 8 5 6 10 11 7 6 9 8 1 -0 11 19 13 7 9 9 7 8 5 -1 1 7 7 5 5 5 4 4 6 6 8 11 7 3 6 7 5 6 9
3 5 9 11 14 18 18 18 17 9 1 3 7 8 9 9 11 17 26 34 37 37 31 19 19 23 3 -14 3 23 31 44 45 33 33 38 30 23 25 27 31 30 19 8 5 8 7 4 7 10 4 0 7 11 6 -2 -1 8 12 10 11 11 10 11 10 7 7 6 6 10 11 9 7 6 7 7 3 2 9 13 12 6 4 12 24
7 5 5 7 9 12 13 14 16 18 16 12 9 9 9 9 11 9 9 15 19 26 32 23 17 26 17 -6 -1 9 5 15 24 9 4 21 32 34 35 31 32 38 38 26 17 18 17 9 6 5 3 6 12 11 6 3 0 1 6 8 10 12 13 15 12 10 9 7 6 8 7 8 11 9 8 8 4 4 11 7 -3 -2 9 17 14
7 6 4 3 4 5 7 8 9 10 11 11 10 11 9 6 9 8 7 10 11 12 20 19 13 18 16 4 7 7 -13 -15 4 6 0 6 13 22 35 32 15 4 10 19 23 28 31 24 13 8 7 11 17 14 7 5 6 8 10 10 10 11 13 15 13 7 6 7 8 8 6 6 10 10 9 8 4 3 3 -1 1 13 19 12 3
6 5 5 4 4 3 2 4 5 5 6 8 7 7 8 7 7 8 5 8 10 8 11 14 12 15 18 13 14 19 11 4 10 12 10 9 6 8 24 39 32 11 1 9 15 21 30 29 19 14 11 11 18 23 16 6 3 6 7 8 11 11 10 13 14 8 5 6 7 7 7 6 7 7 7 7 6 4 2 5 12 12 5 3 9
7 6 5 4 4 4 2 2 3 2 2 4 4 4 6 6 6 7 6 6 8 8 8 11 11 10 14 14 11 12 14 13 10 7 5 7 9 7 9 22 36 34 24 19 14 10 16 22 21 21 21 18 20 25 23 14 7 5 4 4 7 9 5 7 13 12 6 3 1 2 3 2 2 5 7 9 12 9 6 5 2 1 7 14 13
9 8 8 7 5 5 4 3 4 5 4 4 5 4 5 6 6 7 7 5 7 8 6 7 9 7 8 10 11 10 10 10 9 8 6 6 8 10 9 10 19 27 29 28 25 21 19 19 17 16 15 14 15 18 23 21 12 6 4 4 7 10 7 3 6 10 10 7 5 4 1 -1 4 10 13 16 19 17 16 14 7 5 11 9 0
9 8 8 9 8 7 6 4 4 5 6 6 7 6 7 8 8 9 10 8 7 8 7 6 6 7 6 5 5 5 7 9 8 6 6 7 7 7 7 6 5 8 11 16 22 28 28 27 26 25 25 27 28 30 35 37 33 25 18 12 10 12 10 5 2 5 8 9 7 5 4 5 10 11 9 9 11 12 15 17 14 9 5 -0 1
10 10 9 10 11 10 10 8 6 6 6 6 8 8 9 9 9 10 12 12 10 9 9 9 7 7 8 8 7 5 4 7 9 7 4 7 7 4 4 5 4 3 2 2 3 5 6 4 4 4 5 7 10 12 16 23 29 32 32 31 31 29 23 14 7 7 9 10 8 7 9 12 13 10 8 10 12 11 10 8 9 12 10 8 8
12 12 11 12 13 13 13 13 11 10 10 9 8 9 9 10 10 9 9 11 13 14 13 12 12 10 8 8 8 8 8 7 9 9 6 5 6 5 5 5 4 2 2 1 0 -1 -2 -3 -4 -5 -4 -2 -2 -1 -1 -0 3 7 11 18 28 35 35 30 23 19 16 13 11 12 14 15 13 10 11 13 12 12 12 11 12 13 12 12 9
13 14 13 14 14 14 15 16 15 13 13 12 12 12 11 10 9 10 10 9 10 12 13 14 15 14 13 12 9 8 9 9 9 10 11 9 6 5 5 5 5 5 5 4 4 4 4 5 6 7 8 8 7 7 7 7 6 5 3 4 7 11 17 20 21 23 22 19 19 18 16 15 14 13 14 14 12 14 16 17 18 16 12 11 9
13 14 14 13 12 11 11 12 13 13 12 12 12 12 12 12 10 9 9 9 8 9 10 11 12 13 12 13 12 10 9 9 8 9 11 12 11 8 6 5 5 6 7 6 6 6 6 6 6 7 8 9 9 9 9 9 10 9 7 7 6 5 5 5 7 11 15 18 21 21 18 16 14 12 12 10 10 14 15 15 18 20 19 16 14
11 12 12 12 12 12 12 11 12 12 11 11 11 10 10 12 12 10 9 8 7 7 7 7 9 11 11 11 11 11 11 10 9 7 7 9 11 12 12 11 9 7 7 6 5 5 6 6 6 6 6 7 8 8 8 9 10 10 9 9 8 8 7 6 5 6 7 8 10 11 12 13 13 12 11 8 7 9 10 8 9 13 12 7 1
11 10 11 12 12 11 12 12 11 12 12 11 11 11 10 10 10 11 12 12 12 11 10 8 7 7 8 10 10 10 11 10 10 9 7 6 7 8 10 12 12 10 10 9 7 7 6 5 5 5 6 6 6 7 7 7 7 8 8 9 9 8 8 8 7 7 6 6 6 6 6 7 8 8 9 9 9 9 8 6 4 3 -1 -9 -15
11 10 10 10 11 12 13 13 13 13 13 13 13 13 13 12 11 10 10 11 12 13 13 13 12 10 9 10 10 11 12 13 13 13 12 11 10 9 8 9 10 11 11 11 11 10 9 8 7 6 6 6 7 7 7 7 7 7 7 7 8 8 8 8 8 8 7 7 7 7 7 7 7 7 6 6 6 5 5 5 5 5 4 1 -3
9 11 12 13 13 13 13 13 13 12 12 12 12 11 11 11 12 12 10 9 9 9 9 10 12 11 10 10 9 8 10 11 12 13 13 13 13 13 11 11 10 10 10 10 10 11 10 10 10 8 7 7 7 7 7 7 7 7 8 7 8 8 7 7 7 7 8 7 7 8 8 9 9 10 10 9 9 8 7 6 4 5 6 6 4
13 13 13 12 11 9 9 8 8 8 8 8 9 9 9 9 8 8 9 9 8 8 8 7 6 7 8 9 10 10 9 8 8 9 10 11 12 13 13 13 12 11 11 11 10 10 10 9 9 9 9 9 8 8 9 9 9 9 10 9 10 10 10 9 8 8 7 7 6 6 6 6 7 8 10 11 11 11 11 10 9 9 10 9 8
12 10 8 7 5 5 6 5 5 6 6 6 6 5 6 7 7 7 8 9 10 10 11 10 10 9 7 7 9 11 12 12 11 9 9 10 11 12 12 13 14 13 12 12 12 11 11 12 11 10 9 10 10 9 9 8 8 8 9 10 11 12 12 12 12 12 11 10 9 8 8 7 6 5 6 7 7 8 9 10 11 11 11 11 11
7 5 5 5 5 5 5 5 6 6 5 3 3 4 5 7 9 10 10 11 12 12 13 13 14 14 12 10 10 10 11 12 12 11 11 11 12 12 12 12 13 13 14 14 13 12 11 11 12 12 12 11 11 11 12 12 11 9 8 8 8 9 10 11 12 13 13 14 14 13 13 12 11 9 8 8 8 7 7 8 9 9 10 10 11
5 5 5 5 4 4 5 5 5 5 3 2 3 5 7 9 9 9 9 10 9 9 9 9 9 10 10 10 10 10 10 10 10 10 10 10 10 11 11 10 10 10 12 13 14 14 13 13 12 11 11 10 10 9 9 12 14 14 14 12 9 8 8 9 9 10 11 12 13 14 14 14 14 14 12 12 12 11 10 10 10 9 9 9 9
7 7 7 6 5 5 5 6 6 4 4 4 5 7 9 10 9 8 7 7 6 6 6 6 6 7 8 7 8 9 10 10 10 9 9 9 10 10 10 10 10 9 9 10 11 12 13 13 13 12 11 11 12 11 8 7 7 7 10 13 14 13 13 11 11 10 9 8 9 10 11 13 13 13 13 13 13 13 13 12 12 11 11 11 12
8 8 7 6 6 5 5 6 6 5 3 4 5 7 8 8 8 8 7 6 6 5 4 4 4 4 5 6 7 8 9 9 9 10 9 9 10 9 8 10 12 13 12 11 11 11 11 11 11 12 12 12 13 13 13 12 10 7 5 6 8 11 13 14 14 13 12 12 11 11 11 10 9 9 11 13 13 13 13 12 13 13 12 11 10
7 7 7 6 6 6 6 5 4 3 4 4 5 7 8 7 7 7 6 5 6 5 5 6 6 5 6 7 7 8 8 9 10 11 11 11 12 12 12 14 16 15 14 13 13 13 14 14 14 13 12 12 13 14 14 14 14 14 13 10 9 8 9 9 11 12 13 14 14 15 14 13 12 12 12 12 12 12 13 13 14 15 15 14 13
7 7 7 6 6 5 4 4 3 3 4 5 6 8 8 7 6 6 5 5 6 6 7 9 9 7 7 8 8 8 8 8 9 9 10 12 16 18 20 21 19 17 15 16 15 14 14 15 16 16 14 11 11 12 12 12 12 13 14 14 13 12 11 10 10 10 11 12 12 12 12 13 15 16 15 14 12 12 12 13 13 12 12 13 14
8 7 6 6 6 5 4 4 4 4 5 6 7 8 7 6 5 5 5 5 6 7 8 9 10 11 12 13 13 12 12 13 13 13 14 16 17 17 16 17 17 17 16 15 13 12 12 13 14 15 15 13 12 12 13 13 13 13 13 13 13 13 13 13 13 12 12 13 13 12 11 10 10 12 13 14 15 14 14 14 13 12 13 13 13
6 6 6 5 5 5 5 5 5 5 6 7 7 6 5 5 5 5 6 7 8 9 10 10 11 13 15 16 16 18 20 20 19 18 16 14 13 13 13 14 16 17 17 16 14 13 13 12 13 13 13 13 12 12 11 11 11 11 12 15 15 14 12 12 12 12 12 12 13 14 14 13 12 12 11 12 12 13 13 13 13 13 13 13 13
6 6 7 7 7 7 7 7 6 7 7 7 6 6 5 5 5 6 7 9 10 11 12 13 14 15 17 17 17 18 18 16 13 13 13 13 13 14 15 14 14 15 18 19 21 21 20 18 17 18 19 19 19 19 18 17 14 11 10 11 12 13 13 13 13 13 12 11 10 12 13 14 14 14 14 13 13 12 12 12 13 13 13 13 13
7 8 8 8 8 8 7 7 7 7 7 6 6 5 4 5 7 8 9 10 11 12 13 15 17 18 18 18 17 15 14 12 11 12 12 12 12 13 14 16 19 21 21 18 17 17 17 16 16 16 17 17 17 18 19 21 22 21 18 16 15 14 13 13 12 13 13 13 13 12 12 11 12 12 13 13 13 13 13 13 13 13 13 13 13
8 9 9 9 8 7 7 8 7 7 7 6 5 5 6 7 9 10 10 11 13 15 16 17 18 17 16 15 14 13 12 13 13 13 12 12 14 15 17 19 19 16 12 10 10 10 9 9 9 9 10 11 10 10 12 14 15 17 18 19 20 21 19 17 15 14 13 13 14 14 14 14 14 13 13 13 13 13 14 14 14 13 13 13 13
8 8 8 8 7 7 7 7 7 6 6 5 5 7 9 10 11 12 13 15 17 18 18 17 16 14 13 13 12 12 12 13 14 13 13 16 18 19 19 18 15 9 5 7 10 11 10 9 7 7 8 10 10 11 11 12 14 15 16 17 19 22 23 24 23 22 19 17 15 15 15 16 16 15 15 15 14 14 14 14 14 13 13 13 14
9 9 8 8 8 7 7 8 7 6 6 6 8 10 11 11 13 15 16 18 18 16 15 14 14 13 13 13 13 14 15 16 18 18 18 19 19 18 16 15 13 11 9 11 13 14 15 16 16 16 16 15 15 16 16 17 18 19 20 21 22 23 24 25 26 26 25 24 21 18 16 16 16 16 16 16 16 16 16 16 15 14 13 14 14
Height
5907 5909 5910 5912 5913 5914 5915 5916 5917 5918 5919 5920 5920 5921 5922 5923 5924 5925 5925 5926 5927 5927 5928 5928 5929 5930 5931 5931 5932 5932 5933 5934 5934 5935 5935 5936 5936 5937 5937 5937 5938 5938 5938 5938 5938 5939 5939 5939 5939 5939 5939 5940 5940 5940 5940 5940 5940 5939 5939 5938 5939 5938 5938 5938 5938 5937 5937 5937 5937 5936 5936 5935 5935 5935 5934 5933 5933 5932 5932 5931 5931 5930 5929 5927 5926
5905 5906 5908 5910 5911 5912 5913 5914 5915 5916 5917 5918 5919 5920 5921 5922 5923 5924 5924 5925 5926 5926 5927 5927 5928 5929 5930 5930 5931 5931 5932 5932 5933 5934 5935 5935 5936 5936 5937 5937 5937 5937 5937 5938 5938 5938 5938 5938 5938 5938 5938 5938 5939 5939 5939 5939 5939 5938 5938 5937 5937 5937 5937 5937 5937 5936 5936 5936 5936 5936 5935 5934 5934 5933 5933 5932 5932 5932 5931 5930 5929 5929 5928 5927 5926
5902 5904 5905 5907 5908 5910 5911 5912 5913 5914 5915 5916 5917 5918 5919 5920 5921 5922 5923 5924 5924 5925 5926 5926 5927 5927 5928 5929 5929 5930 5931 5931 5932 5932 5933 5934 5934 5935 5936 5936 5936 5936 5936 5936 5937 5937 5937 5937 5937 5937 5937 5937 5937 5937 5937 5937 5937 5937 5936 5936 5936 5936 5936 5936 5936 5935 5934 5934 5934 5934 5933 5933 5933 5932 5931 5931 5931 5931 5930 5929 5928 5927 5927 5926 5926
5902 5903 5904 5905 5906 5908 5908 5909 5910 5911 5913 5914 5915 5916 5917 5918 5920 5921 5922 5923 5923 5924 5924 5925 5925 5926 5927 5927 5928 5929 5929 5929 5930 5930 5931 5932 5932 5933 5934 5934 5934 5935 5935 5935 5935 5935 5935 5935 5935 5935 5935 5935 5935 5936 5936 5936 5936 5935 5935 5935 5935 5935 5935 5934 5934 5933 5933 5932 5932 5932 5932 5932 5931 5931 5930 5929 5929 5929 5929 5928 5927 5927 5926 5925 5925
5900 5901 5902 5902 5904 5906 5906 5906 5907 5908 5910 5912 5912 5913 5915 5916 5917 5919 5920 5921 5922 5922 5923 5924 5924 5924 5925 5925 5926 5927 5927 5928 5928 5929 5929 5930 5930 5931 5931 5932 5932 5933 5933 5933 5933 5934 5933 5933 5933 5934 5934 5934 5934 5934 5934 5934 5934 5934 5934 5934 5934 5933 5934 5934 5933 5932 5932 5931 5930 5930 5930 5930 5929 5929 5929 5928 5928 5928 5928 5927 5926 5925 5924 5923 5923
5896 5898 5899 5900 5901 5903 5904 5904 5905 5906 5908 5910 5911 5912 5912 5912 5914 5916 5918 5919 5920 5920 5921 5922 5922 5922 5923 5923 5924 5925 5925 5926 5926 5927 5927 5927 5928 5928 5929 5930 5930 5931 5931 5932 5932 5932 5932 5932 5932 5932 5932 5932 5932 5932 5932 5933 5932 5932 5932 5932 5933 5933 5933 5933 5932 5932 5931 5930 5929 5928 5929 5928 5928 5927 5927 5926 5927 5927 5927 5926 5925 5924 5923 5922 5921
5893 5894 5896 5898 5900 5901 5901 5902 5903 5903 5905 5907 5909 5911 5911 5911 5910 5912 5914 5916 5917 5918 5919 5919 5920 5920 5921 5921 5922 5922 5923 5924 5924 5924 5925 5925 5925 5926 5926 5927 5928 5928 5929 5929 5930 5930 5930 5930 5930 5930 5930 5931 5931 5932 5932 5932 5931 5931 5931 5932 5932 5932 5932 5931 5930 5931 5930 5929 5928 5927 5927 5926 5926 5926 5925 5925 5925 5926 5925 5924 5923 5923 5922 5921 5920
5890 5891 5893 5895 5897 5899 5899 5900 5901 5901 5902 5904 5905 5906 5908 5910 5909 5909 5910 5913 5915 5916 5917 5917 5917 5917 5917 5918 5919 5920 5920 5921 5922 5922 5923 5923 5923 5924 5924 5925 5925 5926 5926 5927 5927 5927 5927 5927 5928 5928 5929 5929 5929 5930 5930 5929 5929 5929 5929 5929 5929 5930 5930 5929 5929 5929 5929 5928 5927 5926 5925 5925 5925 5925 5924 5924 5923 5923 5923 5922 5921 5921 5921 5920 5919
5887 5888 5891 5892 5894 5896 5897 5898 5898 5899 5901 5902 5903 5904 5905 5907 5908 5907 5908 5910 5911 5912 5913 5914 5914 5914 5915 5915 5916 5916 5917 5918 5919 5920 5921 5921 5922 5922 5922 5923 5923 5923 5924 5924 5925 5925 5925 5926 5927 5926 5926 5926 5927 5927 5926 5926 5926 5927 5926 5927 5927 5927 5927 5927 5927 5926 5927 5926 5925 5924 5924 5924 5924 5923 5923 5922 5922 5921 5921 5921 5920 5920 5919 5918 5917
5884 5885 5888 5890 5893 5894 5895 5895 5895 5895 5897 5899 5900 5902 5903 5904 5904 5905 5906 5907 5908 5909 5910 5911 5911 5912 5912 5912 5913 5914 5915 5915 5916 5917 5918 5918 5919 5919 5919 5920 5921 5922 5922 5923 5923 5922 5923 5924 5924 5923 5923 5924 5925 5924 5924 5924 5924 5925 5925 5926 5926 5926 5926 5925 5924 5924 5925 5925 5924 5923 5923 5922 5923 5922 5921 5921 5920 5920 5919 5919 5918 5918 5918 5917 5916
5880 5882 5884 5887 5889 5890 5891 5892 5893 5893 5893 5894 5895 5897 5899 5900 5900 5902 5903 5905 5906 5906 5907 5908 5908 5909 5909 5909 5910 5913 5913 5911 5911 5913 5914 5915 5915 5916 5917 5918 5919 5920 5920 5920 5920 5919 5920 5921 5921 5921 5922 5922 5922 5923 5923 5923 5923 5923 5923 5923 5924 5924 5924 5923 5922 5922 5922 5922 5921 5920 5920 5920 5920 5920 5920 5919 5919 5918 5918 5917 5916 5915 5915 5915 5914
5877 5879 5880 5882 5885 5886 5886 5888 5889 5890 5890 5890 5891 5893 5895 5896 5897 5898 5900 5901 5903 5903 5904 5905 5905 5906 5906 5906 5907 5909 5909 5908 5909 5910 5911 5911 5912 5913 5915 5916 5917 5918 5917 5917 5917 5917 5917 5917 5918 5918 5919 5920 5920 5921 5921 5921 5920 5920 5920 5920 5921 5921 5920 5920 5919 5919 5919 5918 5917 5916 5915 5915 5916 5916 5916 5916 5916 5915 5915 5914 5914 5913 5912 5912 5911
5874 5875 5876 5878 5880 5881 5882 5883 5884 5885 5886 5887 5887 5889 5891 5892 5893 5894 5896 5897 5899 5901 5901 5901 5902 5902 5903 5903 5904 5905 5905 5905 5906 5907 5907 5908 5909 5910 5911 5912 5913 5914 5914 5914 5915 5916 5915 5915 5914 5915 5916 5916 5916 5917 5917 5918 5918 5917 5917 5917 5917 5917 5916 5916 5916 5915 5915 5914 5914 5912 5911 5911 5912 5912 5912 5912 5912 5911 5911 5911 5910 5910 5909 5909 5909
5870 5871 5872 5873 5874 5876 5877 5878 5879 5880 5881 5882 5884 5886 5887 5888 5889 5891 5892 5892 5893 5895 5897 5898 5898 5898 5898 5899 5899 5900 5902 5902 5903 5903 5904 5905 5906 5907 5908 5908 5909 5911 5911 5911 5912 5912 5912 5912 5912 5911 5912 5912 5912 5913 5913 5914 5914 5914 5914 5913 5913 5913 5912 5912 5912 5912 5912 5911 5911 5910 5908 5907 5909 5909 5909 5909 5908 5907 5907 5907 5907 5907 5906 5906 5906
5866 5867 5868 5868 5869 5870 5872 5873 5874 5875 5877 5878 5880 5882 5884 5884 5885 5886 5888 5888 5888 5889 5892 5894 5895 5894 5894 5895 5895 5896 5898 5899 5900 5900 5901 5901 5902 5903 5903 5904 5905 5907 5907 5907 5907 5908 5908 5908 5908 5907 5907 5907 5908 5909 5909 5909 5909 5909 5909 5909 5909 5909 5909 5908 5908 5908 5909 5908 5908 5908 5906 5904 5904 5905 5906 5905 5904 5904 5903 5903 5903 5902 5902 5903 5902
5862 5863 5863 5863 5864 5865 5867 5869 5870 5872 5874 5875 5876 5878 5879 5880 5881 5882 5883 5884 5885 5886 5888 5889 5890 5890 5890 5891 5890 5893 5896 5897 5897 5897 5898 5898 5898 5898 5899 5900 5901 5902 5903 5903 5903 5903 5903 5904 5904 5903 5903 5903 5904 5904 5905 5905 5905 5905 5905 5905 5905 5905 5905 5905 5904 5905 5906 5905 5905 5905 5903 5901 5900 5901 5901 5901 5900 5900 5900 5899 5899 5898 5898 5898 5898
5859 5860 5860 5859 5860 5861 5863 5865 5867 5869 5870 5870 5872 5874 5875 5876 5877 5877 5878 5879 5881 5883 5884 5885 5886 5887 5887 5886 5886 5889 5893 5894 5893 5894 5894 5894 5894 5894 5894 5895 5896 5897 5898 5898 5898 5898 5898 5898 5898 5898 5899 5900 5900 5899 5900 5900 5900 5900 5900 5901 5901 5901 5901 5900 5900 5901 5902 5902 5902 5900 5899 5898 5897 5897 5897 5897 5897 5896 5897 5896 5895 5894 5893 5894 5893
5857 5856 5855 5856 5857 5858 5859 5861 5862 5864 5865 5866 5867 5868 5870 5871 5872 5873 5874 5875 5877 5878 5880 5881 5883 5884 5883 5882 5883 5886 5888 5888 5888 5888 5888 5888 5889 5888 5889 5890 5891 5892 5892 5892 5893 5893 5894 5894 5893 5892 5893 5894 5894 5893 5893 5894 5894 5894 5895 5896 5896 5896 5895 5895 5896 5897 5897 5897 5897 5896 5895 5895 5894 5894 5894 5894 5893 5892 5892 5892 5891 5890 5890 5889 5889
5854 5852 5851 5853 5854 5856 5857 5858 5859 5860 5861 5862 5863 5864 5865 5866 5867 5868 5869 5871 5872 5874 5876 5877 5878 5879 5880 5879 5879 5881 5882 5882 5883 5883 5882 5882 5882 5882 5883 5884 5885 5886 5886 5886 5887 5887 5888 5889 5888 5888 5888 5888 5888 5887 5888 5888 5888 5889 5889 5890 5891 5891 5890 5890 5891 5892 5893 5892 5891 5891 5891 5891 5890 5890 5891 5891 5890 5889 5888 5888 5887 5886 5886 5886 5885
5851 5850 5850 5850 5852 5853 5855 5856 5857 5857 5858 5859 5860 5861 5861 5862 5862 5863 5864 5866 5868 5870 5872 5873 5875 5875 5875 5874 5873 5874 5875 5876 5877 5877 5877 5877 5877 5876 5877 5878 5879 5880 5880 5880 5880 5881 5882 5884 5884 5883 5882 5882 5881 5882 5883 5883 5883 5883 5884 5884 5885 5885 5885 5886 5886 5886 5887 5888 5887 5886 5887 5887 5886 5886 5886 5886 5886 5885 5884 5883 5883 5883 5883 5881 5881
5847 5848 5848 5848 5848 5849 5851 5852 5854 5854 5855 5856 5858 5858 5859 5859 5859 5859 5860 5861 5863 5865 5867 5869 5870 5870 5870 5869 5869 5868 5868 5869 5869 5870 5870 5871 5871 5871 5871 5872 5873 5873 5873 5874 5874 5873 5875 5877 5878 5877 5876 5875 5875 5876 5878 5878 5878 5878 5878 5878 5879 5880 5880 5881 5881 5881 5881 5882 5882 5881 5882 5882 5882 5881 5880 5880 5880 5881 5879 5879 5879 5879 5878 5877 5877
5845 5845 5845 5845 5846 5846 5847 5848 5849 5850 5851 5852 5854 5855 5856 5856 5856 5857 5857 5858 5859 5860 5862 5863 5864 5864 5865 5866 5865 5864 5862 5862 5862 5863 5864 5866 5866 5866 5866 5866 5866 5866 5866 5866 5866 5866 5868 5870 5871 5870 5870 5870 5870 5870 5871 5872 5873 5873 5872 5872 5872 5874 5875 5875 5876 5875 5875 5876 5876 5876 5876 5876 5876 5877 5876 5876 5876 5876 5875 5874 5874 5874 5873 5872 5871
5842 5842 5842 5843 5843 5843 5844 5845 5845 5846 5847 5848 5849 5851 5852 5853 5853 5854 5855 5855 5856 5857 5858 5858 5859 5859 5860 5861 5861 5859 5857 5856 5857 5858 5860 5860 5860 5859 5860 5859 5859 5858 5857 5858 5859 5859 5860 5862 5864 5864 5864 5864 5864 5864 5865 5866 5867 5867 5867 5866 5866 5867 5868 5869 5870 5870 5870 5870 5870 5870 5870 5871 5871 5872 5872 5871 5872 5872 5870 5869 5869 5869 5868 5867 5867
5839 5839 5839 5840 5840 5841 5841 5841 5842 5843 5843 5844 5845 5846 5848 5849 5850 5850 5851 5852 5853 5853 5854 5854 5855 5855 5855 5856 5855 5854 5853 5852 5853 5855 5855 5855 5854 5853 5853 5852 5852 5851 5851 5851 5852 5852 5852 5854 5856 5857 5858 5858 5858 5858 5859 5860 5860 5860 5861 5861 5861 5861 5862 5862 5863 5864 5864 5864 5864 5864 5865 5866 5866 5867 5867 5866 5867 5867 5866 5864 5864 5865 5864 5862 5861
5836 5836 5837 5837 5837 5838 5838 5838 5839 5840 5840 5841 5842 5843 5843 5844 5845 5846 5847 5848 5849 5850 5850 5850 5851 5851 5851 5851 5850 5849 5849 5849 5850 5850 5850 5850 5849 5848 5847 5846 5846 5846 5846 5846 5846 5846 5846 5847 5848 5849 5851 5851 5852 5852 5853 5853 5854 5854 5854 5854 5855 5855 5855 5856 5857 5858 5858 5859 5859 5859 5860 5860 5860 5860 5860 5860 5861 5861 5861 5860 5860 5859 5858 5857 5855
5833 5834 5834 5834 5834 5835 5835 5836 5836 5837 5837 5838 5839 5839 5840 5841 5841 5842 5843 5843 5844 5845 5846 5847 5847 5847 5847 5847 5846 5846 5845 5845 5846 5846 5846 5846 5845 5844 5843 5842 5840 5840 5840 5841 5841 5841 5840 5840 5841 5842 5844 5845 5845 5845 5846 5847 5847 5847 5848 5848 5848 5849 5849 5849 5850 5851 5852 5852 5853 5853 5853 5853 5853 5854 5854 5854 5854 5855 5855 5855 5854 5854 5853 5852 5851
5830 5831 5831 5831 5832 5832 5832 5833 5833 5834 5834 5835 5835 5836 5837 5837 5838 5838 5839 5839 5840 5841 5842 5842 5843 5843 5843 5843 5843 5843 5842 5842 5842 5843 5843 5843 5842 5840 5839 5837 5836 5836 5836 5836 5836 5836 5836 5836 5837 5837 5838 5838 5839 5839 5839 5840 5840 5841 5841 5842 5842 5842 5843 5843 5843 5844 5845 5846 5846 5847 5846 5846 5847 5848 5848 5847 5847 5848 5848 5848 5848 5848 5847 5847 5846
5827 5827 5828 5828 5828 5829 5830 5830 5830 5831 5831 5832 5832 5833 5833 5834 5835 5835 5836 5836 5836 5837 5837 5838 5838 5839 5839 5839 5839 5839 5839 5838 5838 5839 5839 5838 5837 5836 5835 5834 5833 5833 5833 5832 5832 5832 5832 5832 5833 5833 5833 5833 5833 5833 5833 5833 5834 5834 5835 5835 5835 5836 5836 5836 5837 5837 5838 5839 5839 5840 5840 5840 5840 5841 5841 5840 5840 5840 5841 5841 5841 5841 5840 5839 5839
5823 5824 5824 5825 5825 5826 5826 5827 5827 5828 5828 5829 5829 5830 5830 5830 5831 5832 5832 5833 5833 5833 5834 5834 5834 5835 5835 5835 5835 5835 5835 5834 5834 5834 5833 5833 5832 5831 5831 5830 5829 5829 5829 5829 5829 5829 5829 5828 5829 5828 5829 5829 5829 5829 5828 5828 5828 5829 5829 5829 5829 5829 5829 5830 5830 5831 5831 5832 5832 5833 5833 5833 5833 5833 5833 5833 5833 5833 5834 5834 5834 5833 5833 5833 5832
5820 5821 5821 5822 5822 5823 5823 5824 5824 5825 5825 5825 5825 5826 5826 5827 5827 5827 5828 5828 5829 5829 5830 5830 5830 5830 5830 5831 5831 5831 5831 5830 5830 5829 5828 5828 5827 5827 5826 5826 5825 5825 5825 5825 5825 5825 5825 5824 5824 5824 5824 5825 5825 5824 5824 5824 5824 5824 5824 5823 5823 5823 5823 5823 5823 5824 5824 5825 5825 5825 5826 5826 5825 5825 5826 5826 5826 5826 5827 5827 5827 5827 5826 5826 5826
5817 5818 5818 5819 5819 5820 5820 5821 5821 5821 5822 5822 5822 5822 5822 5823 5823 5823 5824 5824 5824 5824 5824 5825 5825 5826 5826 5826 5826 5826 5825 5825 5825 5824 5824 5823 5823 5822 5821 5821 5821 5821 5820 5820 5820 5820 5820 5820 5820 5819 5819 5819 5819 5819 5819 5819 5819 5818 5818 5818 5818 5818 5817 5817 5817 5817 5818 5818 5818 5818 5819 5819 5818 5818 5819 5819 5819 5820 5820 5821 5821 5820 5820 5820 5820
5814 5815 5815 5816 5817 5817 5818 5818 5819 5819 5819 5819 5819 5819 5819 5819 5820 5820 5820 5819 5819 5819 5819 5820 5820 5820 5820 5821 5821 5821 5820 5820 5820 5819 5819 5819 5818 5818 5817 5817 5816 5816 5816 5816 5815 5815 5815 5815 5814 5814 5814 5813 5813 5813 5813 5814 5813 5813 5812 5812 5812 5812 5812 5812 5812 5812 5812 5812 5812 5812 5812 5812 5812 5812 5812 5813 5813 5813 5814 5815 5815 5814 5814 5814 5814
5811 5812 5813 5813 5814 5814 5815 5815 5816 5816 5816 5816 5816 5816 5816 5816 5816 5816 5816 5815 5815 5815 5815 5815 5815 5815 5815 5815 5815 5815 5815 5815 5815 5814 5814 5814 5813 5813 5812 5812 5811 5811 5811 5810 5810 5809 5809 5809 5809 5808 5808 5807 5807 5807 5807 5807 5807 5807 5806 5806 5806 5806 5806 5806 5806 5806 5806 5806 5805 5805 5805 5805 5805 5806 5806 5807 5807 5807 5808 5808 5808 5807 5806 5806 5806
5808 5809 5809 5810 5810 5811 5812 5812 5812 5813 5813 5813 5813 5813 5813 5813 5813 5813 5812 5812 5811 5811 5811 5810 5810 5810 5810 5809 5809 5809 5809 5809 5809 5809 5808 5808 5807 5807 5807 5806 5806 5806 5805 5805 5804 5804 5803 5802 5802 5802 5802 5801 5800 5801 5801 5801 5801 5800 5800 5800 5800 5799 5799 5799 5799 5799 5799 5799 5799 5798 5799 5799 5799 5799 5799 5800 5799 5800 5800 5800 5800 5800 5798 5797 5797
5806 5806 5806 5807 5807 5807 5808 5808 5809 5809 5809 5809 5810 5810 5810 5810 5810 5810 5809 5808 5808 5808 5807 5806 5805 5805 5805 5804 5803 5803 5803 5803 5803 5803 5802 5802 5801 5801 5801 5800 5800 5799 5799 5798 5798 5797 5797 5796 5795 5795 5795 5795 5794 5794 5794 5794 5794 5794 5794 5794 5793 5793 5793 5793 5793 5792 5792 5792 5792 5792 5792 5792 5792 5791 5792 5792 5792 5792 5792 5792 5792 5791 5791 5790 5789
5803 5803 5804 5804 5804 5804 5805 5805 5805 5806 5806 5806 5806 5806 5806 5806 5806 5806 5805 5805 5805 5804 5804 5803 5801 5801 5800 5799 5798 5797 5797 5797 5797 5796 5795 5795 5794 5794 5794 5793 5793 5793 5792 5791 5791 5790 5790 5789 5788 5788 5787 5787 5787 5786 5786 5786 5786 5786 5786 5786 5786 5786 5786 5786 5786 5785 5785 5785 5785 5785 5785 5785 5784 5784 5784 5784 5783 5783 5783 5783 5783 5783 5783 5782 5781
5800 5800 5801 5801 5801 5801 5802 5802 5802 5802 5803 5803 5803 5802 5802 5802 5801 5801 5801 5801 5800 5800 5800 5799 5798 5797 5796 5794 5793 5793 5792 5791 5791 5790 5788 5788 5788 5788 5787 5786 5786 5785 5785 5784 5784 5783 5782 5781 5781 5781 5780 5779 5779 5779 5778 5778 5778 5778 5778 5778 5778 5778 5778 5778 5778 5778 5778 5777 5777 5777 5777 5777 5776 5776 5775 5775 5775 5774 5774 5774 5774 5774 5774 5774 5773
5797 5798 5798 5798 5798 5799 5799 5799 5799 5799 5799 5799 5799 5799 5798 5798 5797 5796 5796 5796 5795 5795 5794 5794 5794 5794 5792 5789 5787 5786 5786 5786 5785 5784 5782 5781 5780 5780 5780 5779 5778 5777 5777 5777 5776 5775 5774 5773 5773 5773 5772 5772 5771 5771 5770 5770 5769 5769 5769 5769 5769 5769 5769 5769 5769 5769 5769 5769 5769 5769 5768 5768 5768 5768 5767 5767 5766 5766 5765 5765 5765 5765 5764 5765 5764
5795 5795 5795 5795 5796 5796 5796 5796 5796 5796 5796 5795 5795 5794 5794 5793 5792 5792 5791 5790 5790 5790 5789 5788 5788 5788 5787 5785 5782 5781 5780 5779 5779 5779 5778 5775 5773 5773 5772 5771 5771 5770 5769 5769 5768 5767 5766 5765 5765 5765 5764 5763 5763 5763 5762 5762 5761 5761 5760 5760 5760 5760 5760 5760 5760 5760 5760 5760 5760 5760 5760 5759 5759 5759 5759 5758 5758 5758 5757 5757 5757 5756 5756 5755 5755
5792 5792 5792 5792 5792 5792 5792 5793 5793 5792 5792 5792 5791 5790 5789 5788 5787 5786 5786 5785 5784 5784 5783 5783 5783 5782 5780 5779 5778 5776 5774 5773 5772 5773 5772 5770 5768 5766 5764 5763 5764 5764 5762 5760 5759 5758 5758 5757 5756 5756 5756 5755 5754 5754 5754 5753 5753 5752 5751 5751 5751 5751 5751 5751 5750 5750 5751 5751 5751 5751 5750 5750 5750 5750 5750 5749 5749 5749 5749 5748 5748 5748 5747 5746 5746
5789 5789 5789 5789 5789 5789 5788 5788 5788 5788 5788 5787 5786 5785 5784 5783 5782 5781 5780 5779 5778 5777 5776 5776 5776 5775 5772 5771 5770 5769 5768 5766 5765 5764 5764 5764 5763 5760 5757 5757 5758 5756 5753 5752 5751 5749 5748 5747 5746 5746 5747 5747 5746 5745 5744 5744 5744 5743 5743 5743 5743 5742 5742 5741 5741 5741 5741 5741 5741 5741 5741 5741 5741 5741 5741 5741 5740 5740 5740 5740 5739 5738 5738 5738 5737
5786 5786 5785 5785 5785 5785 5784 5784 5784 5784 5783 5782 5781 5780 5779 5778 5777 5776 5775 5774 5772 5771 5769 5768 5768 5767 5764 5762 5761 5760 5759 5757 5757 5755 5755 5755 5755 5753 5750 5751 5751 5747 5744 5744 5743 5740 5738 5737 5736 5737 5739 5738 5736 5736 5736 5735 5734 5734 5734 5734 5734 5733 5733 5732 5731 5732 5731 5731 5732 5732 5732 5731 5731 5731 5732 5732 5731 5731 5731 5731 5730 5729 5729 5729 5729
5782 5781 5781 5781 5781 5780 5780 5780 5779 5779 5778 5777 5776 5775 5774 5773 5771 5771 5770 5768 5767 5765 5763 5761 5761 5760 5757 5753 5752 5751 5749 5748 5748 5747 5745 5744 5745 5744 5743 5744 5743 5738 5736 5736 5734 5730 5728 5728 5728 5729 5731 5729 5727 5726 5726 5725 5724 5725 5725 5725 5725 5724 5723 5722 5722 5723 5722 5722 5722 5723 5722 5721 5721 5722 5722 5722 5721 5721 5721 5722 5721 5720 5720 5720 5721
5778 5777 5777 5777 5776 5776 5775 5775 5774 5773 5772 5771 5770 5769 5768 5767 5765 5764 5763 5761 5760 5758 5756 5754 5753 5752 5750 5746 5743 5741 5740 5738 5737 5737 5736 5735 5734 5733 5734 5734 5733 5729 5727 5728 5725 5722 5720 5720 5719 5719 5721 5721 5719 5718 5716 5715 5715 5716 5716 5716 5715 5715 5714 5713 5713 5714 5713 5712 5713 5714 5713 5712 5712 5712 5713 5712 5712 5712 5712 5712 5712 5711 5711 5711 5711
5774 5774 5773 5773 5772 5771 5771 5770 5769 5768 5766 5765 5764 5762 5761 5760 5758 5756 5755 5753 5752 5750 5749 5746 5744 5743 5742 5739 5736 5734 5731 5729 5727 5727 5727 5726 5724 5723 5724 5724 5723 5721 5719 5718 5715 5713 5712 5712 5711 5710 5710 5711 5710 5709 5708 5707 5708 5707 5705 5705 5705 5705 5704 5704 5704 5705 5704 5703 5702 5703 5704 5704 5703 5703 5703 5703 5703 5703 5702 5702 5703 5703 5702 5701 5701
5770 5770 5769 5768 5767 5766 5765 5764 5763 5762 5761 5759 5758 5756 5755 5753 5751 5749 5747 5746 5744 5742 5740 5738 5736 5734 5732 5731 5728 5726 5724 5720 5718 5718 5719 5717 5714 5713 5714 5714 5713 5712 5709 5707 5706 5705 5704 5703 5701 5701 5701 5701 5700 5699 5699 5699 5700 5700 5697 5694 5693 5694 5694 5695 5695 5695 5695 5694 5693 5693 5694 5694 5694 5693 5694 5694 5693 5693 5693 5693 5694 5695 5694 5692 5692
5766 5765 5764 5763 5762 5761 5760 5759 5758 5757 5755 5753 5752 5750 5749 5747 5745 5743 5741 5739 5736 5734 5732 5730 5728 5726 5724 5722 5720 5718 5716 5713 5710 5710 5711 5710 5707 5706 5705 5704 5703 5700 5697 5696 5697 5697 5696 5695 5693 5693 5692 5691 5690 5689 5689 5690 5692 5692 5689 5685 5683 5684 5685 5685 5685 5685 5685 5685 5684 5684 5685 5685 5684 5684 5685 5685 5684 5684 5684 5684 5685 5685 5685 5684 5683
5761 5760 5759 5758 5757 5756 5755 5754 5753 5751 5750 5748 5746 5744 5743 5741 5738 5736 5734 5731 5729 5727 5725 5723 5721 5718 5716 5714 5712 5710 5708 5706 5704 5702 5702 5702 5701 5699 5697 5696 5694 5691 5687 5687 5688 5688 5688 5688 5687 5686 5684 5682 5681 5680 5680 5680 5681 5682 5680 5677 5675 5675 5675 5675 5675 5675 5675 5675 5675 5675 5675 5676 5675 5675 5675 5676 5676 5675 5675 5675 5675 5675 5675 5675 5675
5756 5755 5754 5753 5752 5751 5750 5748 5747 5745 5744 5742 5740 5738 5736 5734 5732 5729 5727 5724 5721 5719 5717 5715 5713 5711 5709 5707 5704 5702 5700 5699 5696 5694 5693 5693 5693 5692 5690 5689 5687 5684 5680 5679 5679 5679 5679 5680 5680 5678 5676 5675 5673 5673 5672 5672 5671 5670 5669 5668 5667 5666 5666 5666 5666 5665 5665 5665 5666 5666 5666 5667 5667 5666 5666 5667 5667 5667 5667 5667 5666 5666 5666 5667 5667
5751 5750 5749 5747 5746 5745 5744 5742 5741 5739 5737 5735 5733 5731 5729 5727 5725 5722 5720 5717 5714 5712 5709 5708 5706 5704 5702 5699 5696 5694 5693 5691 5688 5686 5685 5684 5684 5683 5682 5681 5680 5678 5675 5672 5671 5671 5671 5671 5671 5670 5668 5666 5665 5665 5665 5664 5661 5660 5659 5659 5658 5657 5657 5657 5657 5656 5656 5656 5657 5657 5657 5658 5658 5657 5657 5657 5658 5659 5659 5658 5657 5657 5658 5658 5659
5745 5744 5743 5742 5740 5739 5737 5736 5734 5732 5731 5729 5726 5724 5722 5720 5718 5715 5712 5710 5707 5705 5703 5700 5698 5697 5695 5692 5689 5687 5685 5683 5681 5678 5677 5676 5675 5674 5673 5673 5672 5671 5669 5666 5664 5663 5663 5663 5662 5660 5659 5657 5656 5657 5657 5655 5653 5651 5650 5650 5650 5649 5648 5648 5648 5647 5647 5647 5648 5648 5648 5649 5649 5649 5649 5649 5649 5650 5651 5651 5649 5649 5650 5650 5651